Renton, WA
on Tuesday, December 18, 2012

Tuesday
Previous Day Next Day
Daily Summary
 ActualAverage (KSEA)Record (KSEA)
Temperature
Mean Temperature °F 40°F  
Max Temperature 42°F 45°F 54°F (1958)
Min Temperature 35°F 35°F 18°F (1964)
Degree Days
Heating Degree Days 26 25  
Month to date heating degree days 435  
Since 1 July heating degree days 1618  
Cooling Degree Days 0 0  
Month to date cooling degree days 0  
Year to date cooling degree days 189  
Moisture
Dew Point 32°F   
Average Humidity 78    
Maximum Humidity 93    
Minimum Humidity 65    
Precipitation
Precipitation 0.12 in 0.16 in 1.23 in (1960)
Month to date precipitation 3.19  
Year to date precipitation 35.33  
Snow
Snow 0.00 in in 5.10 in (1968)
Month to date snowfall  
Since 1 July snowfall  
Snow Depth in   
Wind
Wind Speed 7 mph   
Max Wind Speed 12 mph   
Max Gust Speed 23 mph   
Visibility 8 miles   
Events Rain , Snow   

Key: T is trace of precipitation, MM is missing value
Source: NWS Daily Summary
Time(PST)TemperatureDew PointHumidity Pressure Visibility Wind DirectionWind SpeedGust SpeedPrecipitationEvents Conditions
12:26 AM 39.2°F 30.2°F 70% 29.91 in 10.0 miles SSE 8.1 mph - N/A   Mostly Cloudy
12:53 AM 37.9°F 30.9°F 76% 29.92 in 10.0 miles SSE 10.4 mph - N/A   Mostly Cloudy
1:04 AM 37.4°F 30.2°F 75% 29.90 in 10.0 miles South 9.2 mph - N/A   Scattered Clouds
1:44 AM 37.4°F 32.0°F 81% 29.90 in 8.0 miles SE 3.5 mph - 0.01 in Rain Light Rain
1:53 AM 37.9°F 33.1°F 83% 29.92 in 10.0 miles SE 4.6 mph - 0.01 in Rain Light Rain
2:53 AM 37.0°F 32.0°F 82% 29.92 in 6.0 miles SSE 6.9 mph - 0.01 in Rain Light Rain
3:01 AM 37.4°F 32.0°F 81% 29.90 in 4.0 miles SSE 8.1 mph - 0.01 in Snow Light Snow
3:12 AM 35.6°F 32.0°F 87% 29.90 in 2.5 miles SE 5.8 mph - 0.02 in Snow Light Snow
3:29 AM 35.6°F 33.8°F 93% 29.90 in 3.0 miles Calm Calm - 0.03 in Snow Light Snow
3:33 AM 35.6°F 33.8°F 93% 29.90 in 2.5 miles SSE 3.5 mph - 0.04 in Snow Light Snow
3:41 AM 35.6°F 32.0°F 87% 29.90 in 1.2 miles SE 3.5 mph - 0.06 in Snow Light Snow
3:53 AM 35.1°F 32.0°F 89% 29.91 in 1.8 miles SE 4.6 mph - 0.07 in Snow Light Snow
3:57 AM 35.6°F 32.0°F 87% 29.90 in 2.5 miles ESE 3.5 mph - 0.01 in Snow Light Snow
4:00 AM 35.6°F 32.0°F 87% 29.90 in 3.0 miles SE 3.5 mph - 0.01 in Snow Light Snow
4:11 AM 35.6°F 32.0°F 87% 29.90 in 4.0 miles ESE 5.8 mph - 0.02 in Snow Light Snow
4:53 AM 37.0°F 33.1°F 86% 29.90 in 10.0 miles Variable 4.6 mph - 0.03 in Rain Light Freezing Rain
5:09 AM 37.4°F 33.8°F 87% 29.89 in 10.0 miles Calm Calm - 0.00 in   Overcast
5:53 AM 37.9°F 33.1°F 83% 29.92 in 10.0 miles SSE 10.4 mph - 0.00 in   Overcast
6:53 AM 37.0°F 33.1°F 86% 29.93 in 10.0 miles SSE 10.4 mph - N/A   Overcast
7:53 AM 37.9°F 32.0°F 79% 29.94 in 10.0 miles SSE 8.1 mph - N/A   Overcast
8:53 AM 37.9°F 32.0°F 79% 29.95 in 10.0 miles SSE 9.2 mph - N/A   Partly Cloudy
9:31 AM 37.4°F 33.8°F 87% 29.95 in 10.0 miles SSE 11.5 mph - N/A   Mostly Cloudy
9:53 AM 37.9°F 33.1°F 83% 29.96 in 10.0 miles SSE 10.4 mph - N/A   Mostly Cloudy
10:04 AM 37.4°F 33.8°F 87% 29.95 in 10.0 miles SSE 9.2 mph - N/A   Mostly Cloudy
10:53 AM 39.0°F 34.0°F 82% 29.97 in 10.0 miles SSE 5.8 mph - N/A   Overcast
10:58 AM 39.2°F 33.8°F 81% 29.96 in 10.0 miles SSE 9.2 mph - N/A   Mostly Cloudy
11:40 AM 41.0°F 33.8°F 76% 29.96 in 10.0 miles SSE 8.1 mph - N/A   Mostly Cloudy
11:53 AM 41.0°F 33.1°F 73% 29.97 in 10.0 miles SSE 10.4 mph - N/A   Mostly Cloudy
12:03 PM 41.0°F 33.8°F 76% 29.96 in 10.0 miles SSE 10.4 mph - N/A   Mostly Cloudy
12:53 PM 41.0°F 32.0°F 70% 29.98 in 10.0 miles South 11.5 mph 23.0 mph N/A   Overcast
1:08 PM 41.0°F 33.8°F 76% 29.96 in 10.0 miles South 11.5 mph 18.4 mph N/A   Overcast
1:38 PM 41.0°F 33.8°F 76% 29.96 in 10.0 miles South 10.4 mph 18.4 mph N/A   Overcast
1:53 PM 41.0°F 32.0°F 70% 29.97 in 10.0 miles South 8.1 mph - N/A   Mostly Cloudy
2:53 PM 42.1°F 32.0°F 67% 29.98 in 10.0 miles South 8.1 mph - N/A   Overcast
3:53 PM 41.0°F 30.9°F 67% 29.99 in 10.0 miles SSW 8.1 mph - N/A   Overcast
4:00 PM 41.0°F 30.2°F 65% 29.97 in 10.0 miles South 6.9 mph - N/A   Overcast
4:53 PM 41.0°F 30.0°F 65% 30.00 in 10.0 miles South 9.2 mph 16.1 mph 0.00 in   Overcast
5:53 PM 39.9°F 30.9°F 70% 30.00 in 10.0 miles SE 4.6 mph - N/A   Mostly Cloudy
6:53 PM 39.9°F 30.9°F 70% 30.01 in 10.0 miles SSE 6.9 mph - N/A   Overcast
7:53 PM 39.9°F 30.9°F 70% 30.01 in 10.0 miles SSE 6.9 mph - N/A   Overcast
8:02 PM 39.2°F 30.2°F 70% 29.99 in 10.0 miles SSE 9.2 mph - N/A   Overcast
8:26 PM 39.2°F 30.2°F 70% 29.99 in 10.0 miles SSE 8.1 mph - N/A   Overcast
8:33 PM 39.2°F 30.2°F 70% 29.99 in 10.0 miles SSE 6.9 mph - N/A   Overcast
8:53 PM 39.0°F 30.0°F 70% 30.01 in 10.0 miles SSE 5.8 mph - N/A   Overcast
9:53 PM 39.0°F 30.0°F 70% 30.01 in 10.0 miles SSE 4.6 mph - N/A   Overcast
10:53 PM 39.0°F 30.0°F 70% 30.00 in 10.0 miles Calm Calm - N/A   Overcast
11:53 PM 39.0°F 28.9°F 67% 29.99 in 10.0 miles ESE 4.6 mph - N/A   Overcast
Moon Phase
Dec. 18 Dec. 20 Dec. 28 Jan. 04 Jan. 11
Sunrise:07:52 AM (PST) Moon Rise:11:11 AM (PST)
Sunset:04:19 PM (PST) Moon Set:11:16 PM (PST)

Copyright © 2014 The Weather Underground, Inc.